{"data":{"norad_id":53729,"epoch":"2026-09-20T21:57:56.310912Z","epoch_age_seconds":45560,"freshness":"FRESH","line1":"1 53729U 22107AF  26263.91523508 -.00068599  00000+0 -20102-2 0  9995","line2":"2 53729  53.1620  88.1181 0000907  65.6898 294.4200 15.34825301224180","mean_motion":15.34825301,"eccentricity":9.07e-5,"inclination_deg":53.162,"raan_deg":88.1181,"arg_perigee_deg":65.6898,"mean_anomaly_deg":294.42,"bstar":-0.0020102,"rev_number":22418,"period_min":93.821752811983,"perigee_km":460.81909833088,"apogee_km":462.05979749853,"semimajor_km":6839.5764479147,"source":"CELESTRAK","updated_at":"2026-09-21T09:00:32.987219Z"}}